www.pogodaiklimat.ru

ПОГОДА в Сент-Чарльзе, MO

  • Прогноз погоды в Сент-Чарльзе
  • Монитор погоды в Сент-Чарльзе
  • Климат в Сент-Чарльзе

АРХИВ ПОГОДЫ в Сент-Чарльзе

Время (UTC), дата Ветер
(напр.,м/с)
 
Видим.   Явления Облачность Т
(С)
Тd
(С)
f
(%)
Тe
(С)
Тes
(С)
Комфортность

P
(гПа)

Po
(гПа)
Тmin
(С)
Tmax
(С)
R
(мм)
SD
(см)
03:54 20.03 Ю  16 км    ясно  +10.0  +1.1  54  +7  +7    1022.4  1006.2         
04:54 20.03 Ю  16 км    5/0 2550 м
[средняя] 
+10.0  +0.6  52  +7  +7    1022.2  1006.2  +7.8  +11.1     
05:54 20.03 ЮВ  16 км    10/0 2700 м
[средняя] 
+9.4  +0.6  54  +7  +7    1021.5  1005.5         
06:54 20.03 Ю  16 км    10/5 1800 м
[средняя] 
+8.9  +0.6  56  +7  +7    1021.4  1005.2         
07:54 20.03 ЮВ  16 км    10/10 1950 м  +8.9  +1.7  61  +8  +8    1020.5  1004.5         
08:54 20.03   16 км    10/10 1800 м  +8.9  +2.8  66  +8  +8    1020.0  1004.2         
09:54 20.03 В  16 км    10/8 1800 м
[средняя] 
+6.7  +5.0  89  +3  +3    1019.3  1003.2         
10:54 20.03 ЮВ  16 км    10/0 2100 м
[средняя] 
+6.7  +3.9  82  +3  +3    1019.2  1003.2  +6.7  +10.0  1.0   
11:54 20.03 ЮВ  16 км    8/8 1800 м
[средняя] 
+7.2  +3.9  80  +4  +4    1019.2  1003.2         
12:54 20.03 ЮВ  16 км    8/8 1500 м  +8.9  +4.4  73  +7  +7    1018.7  1002.5         
13:54 20.03 Ю  16 км    ясно  +10.6  +3.9  63  +8  +10    1018.1  1002.2         
14:54 20.03 ЮЗ  16 км    10/10 960 м  +11.7  +3.3  56  +9  +9    1017.8  1001.9         
15:54 20.03 СЗ  16 км    10/10 1140 м  +10.6  +5.6  71  +7  +7    1018.2  1002.2         
16:30 20.03 З  14 км    10/10 840 м  +10.0  +6.1  77  +6  +6      1001.9         
16:54 20.03 З  16 км    10/10 720 м  +10.6  +5.6  71  +7  +7    1017.8  1001.9  +6.7  +12.2     
17:54 20.03 З  8
{10} 
16 км    8/8 1800 м  +11.1  +5.0  66  +8  +8    1016.9  1000.9         
18:54 20.03 З  16 км    8/8 1050 м  +11.7  +4.4  61  +9  +9    1016.3  1000.2         
19:54 20.03 З  16 км    10/10 990 м  +10.6  +4.4  65  +7  +7    1016.5  1000.5         
20:54 20.03 З  16 км    10/10 1230 м  +11.1  +3.9  61  +8  +8    1016.3  1000.2         
21:54 20.03 З  16 км    10/10 1380 м  +10.6  +3.9  63  +8  +8    1016.0  999.9         
22:54 20.03 ЮЗ  16 км    ясно  +10.0  +3.9  66  +8  +9    1015.9  999.9  +10.0  +11.7     
23:54 20.03 Ю  16 км    ясно  +7.2  +3.3  76  +4  +4    1016.0  999.9         
00:54 21.03 Ю  16 км    8/5 1800 м
[средняя] 
+7.2  +3.3  76  +4  +4    1016.3  1000.2         
01:54 21.03 З  16 км    8/5 1440 м
[средняя] 
+6.7  +3.3  79  +5  +5    1016.6  1000.5         
02:54 21.03 ЮЗ  16 км    10/0 3000 м
[средняя] 
+8.9  +3.3  68  +6  +6    1015.9  999.9         
03:54 21.03 З  16 км    8/0 2400 м
[средняя] 
+6.1  +2.8  79  +3  +3    1015.5  999.5         
04:54 21.03   16 км    10/2 1500 м
[средняя] 
+6.7  +3.3  79  +6  +6    1015.2  999.2  +5.6  +10.0     
05:54 21.03 З  16 км    2/0 2400 м
[средняя] 
+7.2  +2.2  71  +4  +4    1015.4  999.5         
06:54 21.03 СЗ  16 км    8/8 1650 м  +7.8  +2.8  71  +4  +4    1015.8  999.9         
07:54 21.03 СЗ  16 км    ясно  +6.1  +1.1  70  +1  +1    1015.9  999.9         
08:54 21.03 СЗ  16 км    ясно  +5.0  0.0  70  0  0    1016.3  1000.2         
09:51 21.03 С  16 км    8/8 870 м  +5.0  0.0  70  +1  +1      1001.2         
09:54 21.03 С  16 км    8/8 870 м  +4.4  0.0  73  -0  -0    1017.1  1001.2         
10:54 21.03 СЗ  16 км    10/10 840 м  +4.4  0.0  73  -0  -0    1018.1  1001.9  +4.4  +8.3     
11:35 21.03 СЗ  16 км    5/5 810 м  +4.4  -0.6  70  -1  -1      1002.2         
11:54 21.03 СЗ  16 км    ясно  +4.4  -0.6  70  -1  -1    1018.7  1002.5         
12:54 21.03 С  5
{9} 
16 км    ясно  +5.6  0.0  67  +1  +1    1019.3  1003.2         
13:54 21.03 С  16 км    5/5 900 м  +7.8  +0.6  60  +4  +5    1019.7  1003.5         
14:54 21.03 СЗ  16 км    8/8 960 м  +7.8  +0.6  60  +4  +4    1019.9  1003.9         
15:54 21.03 СЗ  6
{11} 
16 км    8/8 1110 м  +8.9  +0.6  56  +5  +6    1019.7  1003.5         
16:54 21.03 З  6
{12} 
16 км    8/8 1290 м  +10.0  +1.1  54  +7  +7    1019.7  1003.5  +4.4  +10.0     
17:54 21.03 З  6
{10} 
16 км    8/8 1320 м  +10.6  +0.6  50  +8  +8    1019.3  1003.2         
18:54 21.03 З  8
{11} 
16 км    ясно  +12.2  +1.1  47  +9  +10    1018.8  1002.9         
19:54 21.03 З  9
{13} 
16 км    ясно  +12.2  +1.1  47  +9  +9    1018.9  1002.9         
20:54 21.03 СЗ  16 км    2/2 1470 м  +12.2  +0.6  45  +9  +11    1018.8  1002.9         
21:54 21.03 СЗ  16 км    ясно  +12.2  0.0  43  +10  +11    1018.7  1002.5         
22:54 21.03 СЗ  16 км    ясно  +11.1  +0.6  48  +8  +9    1018.9  1002.9  +10.0  +12.8     
23:54 21.03 З  16 км    ясно  +8.9  +0.6  56  +7  +7    1019.0  1002.9         

 

Местоположение метеостанции St. Charles County Smartt Airport: широта 38.9306 долгота -90.4325 высота над уровнем моря 133 м.

В архиве по умолчанию представлена погода в Сент-Чарльзе за последние 1-2 суток. Обновление информации о фактической погоде в базе происходит ежечасно! Архивные данные за месяц целиком и за предыдущие месяцы Вы можете получить, выбрав интересующий диапазон дат из раскрывающегося списка и нажав кнопку "Ввод!".

Внимание! Архив погоды МЕТАР в базе сайта хранится не более 60 дней. Нет смысла пытаться выбрать более раннюю дату.

Внимание! Время в таблицах - всемирное. Для получения местного времени необходимо прибавить поправку, которая в Сент-Чарльзе равна -6 ч.

Ветер - указаны скорость ветра в м/с и направление, откуда дует ветер: С - северный, СВ - северо-восточный, В - восточный, ЮВ - юго-восточный, Ю - южный, ЮЗ - юго-западный, З - западный, СЗ - северо-западный.
Видимость - горизонтальная дальность видимости в метрах или километрах. При видимости от 1 до 10 км при отсутствии осадков обычно наблюдается дымка, при ухудшении видимости до 1 км и менее - туман. В сухую погоду видимость может ухудшаться дымом, пылью или мглою.
Атмосферные явления - указаны явления, наблюдавшиеся в указанный момент времени.
Облачность - указаны через наклонную черту верхняя и нижняя облачность в баллах и высота нижней границы облаков в метрах. Внимание: облачность, как и прочие метеорологические величины в США измеряются автоматическими метеостанциями. Указанные значения в баллах носят условный характер и показывают процент времени, в течение которого, в среднем, лазерный луч высотомера отражался от облаков обратно.
T - Температура воздуха - температура, измеренная на высоте 2 м над землей.
Td - Температура точки росы - температура, при понижении до которой содержащийся в воздухе водяной пар достигнет насыщения.
f - Относительная влажность воздуха - влажноcть воздуха, измеренная на высоте 2 м над землей.
Te - Эффективная температура - температура, которую ощущает одетый по сезону человек в тени. Характеристика душности погоды. При расчете учитывается влияние влажности воздуха и скорости ветра на теплоощущения человека.
Tes - Эффективная температура на солнце - температура, которую ощущает человек, с поправкой на солнечный нагрев. Характеристика знойности погоды. Зависит от высоты солнца над горизонтом, облачности и скорости ветра. Ночью, в пасмурную погоду, а также при ветре 12 м/с и более поправка равна нулю.
P - Атмосферное давление - приведенное к уровню моря атмосферное давление.
Po - Атмосферное давление - измеренное на уровне метеостанции атмосферное давление.
Tmin - Минимальная температура - минимум температуры воздуха на высоте 2 м над землей.
Tmax - Максимальная температура - максимум температуры воздуха на высоте 2 м над землей.
R - Количество осадков - Количество выпавших осадков за 3 или 6 часов, мм.
SD - Снежный покров - Высота снежного покрова, см.